Location: Ashtead
(51.3000°N, 0.3000°W)
Time: 12:39:55
(UTC+00:00)

NOSS 3 (A) - Pass Details

Date: 26 September 2023
Orbit: 160 x 953 km, 63.3° (Epoch: 23 April)

Event Time Altitude Azimuth Distance (km) Brightness Sun altitude
Exits shadow 05:04:33 18° 256° (WSW) 500 4.5 -8.4°
Maximum altitude 05:05:27 37° 318° (NW) 283 3.6 -8.3°
Drops below altitude 10° 05:07:03 10° 32° (NNE) 794 6.8 -8.0°
Sets 05:08:55 0° 41° (NE) 1,627 8.6 -7.7°
